Regional Weather Roundup
Issued by NWS

Home | Current Version | Previous Version | Text Only | Print | Product List | Glossary Off
Versions: 1 2 3 4 5 6 7 8 9 10 11 12 13 14 15 16 17 18 19 20 21 22 23 24 25 26 27 28 29 30 31 32 33 34 35 36 37 38 39 40 41 42 43 44 45 46 47 48 49 50

000
ASUS43 KDTX 271701
RWRMI
MICHIGAN HOURLY REGIONAL WEATHER ROUNDUP
NATIONAL WEATHER SERVICE DETROIT/PONTIAC MI
100 PM EDT THU JUL 27 2017

NOTE: "FAIR" INDICATES FEW OR NO CLOUDS BELOW 12,000 FEET WITH NO
SIGNIFICANT WEATHER AND/OR OBSTRUCTION TO VISIBILITY.

MIZ047>049-052>055-059>063-066>070-074>076-081>083-271800-
SOUTHEAST LOWER MICHIGAN

CITY           SKY/WX    TMP DP  RH WIND       PRES   REMARKS
ADRIAN         CLOUDY    81  67  62 CALM      29.93F
ALMA           CLOUDY    75  68  77 NE7       29.96S
ANN ARBOR      PTSUNNY   82  65  56 N3        29.92F
BAD AXE        MOSUNNY   74  64  70 NE6       29.97S
CARO           CLOUDY    75  69  82 NE7       29.95S
DETROIT CITY   MOSUNNY   82  66  58 E8        29.93S
DETROIT        PTSUNNY   84  64  50 N7        29.92F
FLINT          CLOUDY    75  69  81 NE10      29.95F
GROSSE ILE     SUNNY     80  69  69 S8        29.92F
HILLSDALE      CLOUDY    81  61  50 NE5       29.94S
HOWELL         PTSUNNY   78  67  69 NE8       29.95F

CITY           SKY/WX    TMP DP  RH WIND       PRES   REMARKS
JACKSON        PTSUNNY   81  65  58 NE10      29.94S
LAMBERTVILLE   CLOUDY    81  67  62 CALM      29.92S
LANSING        CLOUDY    79  67  66 NE7       29.95S
LAPEER         CLOUDY    73  67  83 NE3       29.97R
MASON          MOSUNNY   78  69  73 E7        29.95S
MONROE         MOSUNNY   81  67  61 E3        29.91F
PONTIAC        CLOUDY    77  68  73 N8        29.94S
PORT HOPE        N/A     68  63  84 VRB3      29.97S
PORT HURON     CLOUDY    77  68  73 N3        29.94S
TRI CITIES     PTSUNNY   75  70  84 NE14      29.96S
MIDLAND        CLOUDY    78  64  60 E14       29.95S
TROY           CLOUDY    80  66  62 N5        29.95F
SAGINAW HB     PTSUNNY   73  70  88 N10       29.95S
$$
MIZ043>046-050>051-056>058-064>065-071>073-077>080-271800-
SOUTHWEST LOWER MICHIGAN

CITY           SKY/WX    TMP DP  RH WIND       PRES   REMARKS
BATTLE CREEK   PTSUNNY   83  64  52 CALM      29.94S
BENTON HARBOR  CLOUDY    78  70  76 N8        29.93R
BIG RAPIDS     PTSUNNY   76  60  57 N8        29.97S
COLDWATER      CLOUDY    81  66  60 E5        29.93S
FREMONT        FAIR      80  64  57 NE8       29.96S
HOLLAND        CLOUDY    82  69  64 VRB6      29.95R
GRAND RAPIDS   CLOUDY    78  69  73 E7        29.95R
IONIA          CLOUDY    76  66  71 NE6       29.95R
KALAMAZOO      SUNNY     86  63  45 SE5       29.93S
LUDINGTON      PTSUNNY   78  65  63 N9        29.97S
MARSHALL       PTSUNNY   82  66  57 N3        29.94R
MOUNT PLEASANT SUNNY     80  60  51 NE9       29.96S
MUSKEGON       PTSUNNY   84  67  56 NE13      29.95S
SOUTH HAVEN    SUNNY     82  73  75 NW8       29.93S
$$
MIZ016>042-271800-
NORTHERN LOWER MICHIGAN

CITY           SKY/WX    TMP DP  RH WIND       PRES   REMARKS
ALPENA         MOSUNNY   77  64  64 N8        29.99S
BEAVER ISLAND  SUNNY     74  60  62 N12       30.03S
BELLAIRE       SUNNY     77  59  54 N6        29.99S
CADILLAC       MOSUNNY   79  57  46 N12       29.99F
CHARLEVOIX     SUNNY     70  64  81 N9        30.04S
FRANKFORT      SUNNY     78  64  63 N7        30.00S
GAYLORD        MOSUNNY   75  59  57 NE8       30.01S
GRAYLING       MOSUNNY   77  59  53 N9        30.00S
HARBOR SPRINGS   N/A     77  58  52 NE9       30.00S
HOUGHTON LAKE  MOSUNNY   79  59  50 NE10      29.99F
MANISTEE       SUNNY     80  60  50 NE14      29.98S
OSCODA         SUNNY     76  61  59 NE12      29.97S
PELLSTON       SUNNY     76  59  55 N8        30.01S
ROGERS CITY    SUNNY     69  61  77 N6        30.01F
TRAVERSE CITY  MOSUNNY   76  64  66 NE9       29.98F
$$
MIZ007>008-015-271800-
EASTERN UPPER MICHIGAN

CITY           SKY/WX    TMP DP  RH WIND       PRES   REMARKS
KINROSS        SUNNY     73  56  54 N12       30.01F
MACKINAC ISLAN SUNNY     73  61  64 N8        30.00F
NEWBERRY       SUNNY     72  56  57 N8        30.03S
S. S. MARIE    SUNNY     77  56  48 VRB3      29.99F
MUNISING         N/A     68  59  73 NE13      30.07R
$$
MIZ004>006-011>014-085-271800-
CENTRAL UPPER MICHIGAN

CITY           SKY/WX    TMP DP  RH WIND       PRES   REMARKS
MANISTIQUE     SUNNY     76  57  50 N10G17    30.03S
ESCANABA       SUNNY     76  59  55 NE12      30.04S
MENOMINEE      SUNNY     74  60  61 E10       30.05S
SAWYER-GWINN   SUNNY     70  55  60 N13       30.09S
$$
MIZ001>003-009>011-084-271800-
WESTERN UPPER MICHIGAN

CITY           SKY/WX    TMP DP  RH WIND       PRES   REMARKS
IRON MOUNTAIN  MOSUNNY   77  56  48 N9        30.06S
HOUGHTON       SUNNY     74  55  51 VRB7      30.10S
COPPER HARBOR    N/A     64  54  69 VRB3      30.10R
IRONWOOD       MOSUNNY   77  58  51 NE6       30.10S
$$

ABBREVIATIONS USED IN REMARKS
   TC - TEMPERATURE IN CELSIUS
  WCI - WIND CHILL INDEX
   HX - HEAT INDEX
  VSB - VISIBILITY




USA.gov is the U.S. government's official web portal to all federal, state and local government web resources and services.